Woodward, OK

11:28 AM CDT on June 29, 2017 (GMT -0500)
West Woodward

Weather History for KWWR - February, 2012

Change the Weather History Date:

Monday, February 6, 2012

  Actual Average (KGAG) Record (KGAG)
Temperature  
Mean Temperature 40 °F -  
Max Temperature 51 °F 46 °F 75 °F (2009)
Min Temperature 30 °F 19 °F 3 °F (2014)
Degree Days  
Heating Degree Days 24    
Moisture  
Dew Point 28 °F    
Average Humidity 67    
Maximum Humidity 86    
Minimum Humidity 41    
Precipitation  
Precipitation 0.00 in - - ()
Sea Level Pressure  
Sea Level Pressure 30.27 in    
Wind  
Wind Speed 9 mph (SSW)    
Max Wind Speed 14 mph    
Max Gust Speed 21 mph    
Visibility 10 miles    
Events      
Averages and records for this station are not official NWS values.
T = Trace of Precipitation, MM = Missing Value Source: NWS Daily Summary

Daily Weather History Graph

Daily Weather History Graph

Search for Another Location

Airport or City:

Trip Planner

Search our weather history database for the weather conditions in past years. The results will help you decide how hot, cold, wet, or windy it might be!

Date:

Astronomy

Feb. 06, 2012 Rise Set
Actual Time 7:35 AM CST 6:09 PM CST
Civil Twilight 7:08 AM CST 6:35 PM CST
Nautical Twilight 6:38 AM CST 7:06 PM CST
Astronomical Twilight 6:08 AM CST 7:36 PM CST
Moon 5:14 PM CST (2/6) 6:27 AM CST (2/6)
Length of Visible Light 11h 27m
Length of Day
10h 33m
Waxing Gibbous, 98% of the Moon is Illuminated
Feb 6
Waxing Gibbous
Feb 7
Full
Feb 14
Last Quarter
Feb 21
New
Feb 29
First Quarter

Hourly Weather History & Observations

Time (CST) Temp. Windchill Dew Point Humidity Pressure Visibility Wind Dir Wind Speed Gust Speed Precip Events Conditions
12:15 AM 32.0 °F 24.8 °F 26.6 °F 80% 30.35 in 10.0 mi SW 8.1 mph - N/A   Clear
12:35 AM 32.0 °F 24.8 °F 26.6 °F 80% 30.35 in 10.0 mi SW 8.1 mph - N/A   Clear
12:55 AM 32.0 °F 24.8 °F 26.6 °F 80% 30.35 in 10.0 mi SW 8.1 mph - N/A   Clear
1:15 AM 32.0 °F 24.8 °F 26.6 °F 80% 30.34 in 10.0 mi SW 8.1 mph - N/A   Clear
1:35 AM 32.0 °F 24.2 °F 26.6 °F 80% 30.34 in 10.0 mi SW 9.2 mph - N/A   Clear
1:55 AM 32.0 °F 24.2 °F 26.6 °F 80% 30.34 in 10.0 mi SW 9.2 mph - N/A   Clear
2:15 AM 32.0 °F 24.2 °F 26.6 °F 80% 30.34 in 10.0 mi SW 9.2 mph - N/A   Clear
2:35 AM 32.0 °F 24.2 °F 26.6 °F 80% 30.34 in 10.0 mi SW 9.2 mph - N/A   Clear
2:55 AM 32.0 °F 24.2 °F 26.6 °F 80% 30.33 in 10.0 mi SW 9.2 mph - N/A   Clear
3:15 AM 32.0 °F 24.2 °F 26.6 °F 80% 30.33 in 10.0 mi SSW 9.2 mph - N/A   Clear
3:35 AM 32.0 °F 24.8 °F 26.6 °F 80% 30.33 in 10.0 mi SSW 8.1 mph - N/A   Clear
3:55 AM 32.0 °F 24.2 °F 26.6 °F 80% 30.33 in 10.0 mi SSW 9.2 mph - N/A   Clear
4:15 AM 32.0 °F 24.2 °F 26.6 °F 80% 30.32 in 10.0 mi SSW 9.2 mph - N/A   Clear
4:35 AM 30.2 °F 22.6 °F 26.6 °F 86% 30.33 in 10.0 mi SSW 8.1 mph - N/A   Clear
4:55 AM 30.2 °F 21.9 °F 26.6 °F 86% 30.32 in 10.0 mi SW 9.2 mph - N/A   Clear
5:15 AM 30.2 °F 21.9 °F 26.6 °F 86% 30.32 in 10.0 mi SW 9.2 mph - N/A   Clear
5:35 AM 30.2 °F 22.6 °F 26.6 °F 86% 30.32 in 10.0 mi SW 8.1 mph - N/A   Clear
5:55 AM 30.2 °F 22.6 °F 26.6 °F 86% 30.32 in 10.0 mi SSW 8.1 mph - N/A   Clear
6:15 AM 30.2 °F 22.6 °F 26.6 °F 86% 30.32 in 10.0 mi SW 8.1 mph - N/A   Clear
6:35 AM 30.2 °F 22.6 °F 26.6 °F 86% 30.32 in 10.0 mi SW 8.1 mph - N/A   Clear
6:55 AM 30.2 °F 22.6 °F 26.6 °F 86% 30.32 in 10.0 mi SW 8.1 mph - N/A   Clear
7:15 AM 30.2 °F 21.9 °F 26.6 °F 86% 30.33 in 10.0 mi SW 9.2 mph - N/A   Clear
7:35 AM 30.2 °F 21.9 °F 26.6 °F 86% 30.32 in 10.0 mi SW 9.2 mph - N/A   Clear
7:55 AM 30.2 °F 21.9 °F 26.6 °F 86% 30.32 in 10.0 mi SW 9.2 mph - N/A   Clear
8:15 AM 32.0 °F 26.4 °F 26.6 °F 80% 30.32 in 10.0 mi SW 5.8 mph - N/A   Clear
8:55 AM 33.8 °F 27.7 °F 28.4 °F 81% 30.32 in 10.0 mi SW 6.9 mph - N/A   Clear
9:15 AM 35.6 °F 29.2 °F 28.4 °F 75% 30.32 in 10.0 mi SW 8.1 mph - N/A   Clear
9:35 AM 37.4 °F 30.8 °F 30.2 °F 75% 30.32 in 10.0 mi SSW 9.2 mph - N/A   Clear
9:55 AM 37.4 °F 31.4 °F 30.2 °F 75% 30.31 in 10.0 mi SW 8.1 mph - N/A   Clear
10:15 AM 39.2 °F 34.2 °F 30.2 °F 70% 30.30 in 10.0 mi SSW 6.9 mph - N/A   Clear
10:35 AM 42.8 °F 37.5 °F 30.2 °F 61% 30.30 in 10.0 mi SW 9.2 mph - N/A   Clear
10:55 AM 44.6 °F 38.8 °F 30.2 °F 57% 30.30 in 10.0 mi SSW 11.5 mph - N/A   Clear
11:15 AM 44.6 °F 38.8 °F 30.2 °F 57% 30.29 in 10.0 mi SSW 11.5 mph - N/A   Clear
11:35 AM 44.6 °F 38.8 °F 28.4 °F 53% 30.28 in 10.0 mi SSW 11.5 mph - N/A   Clear
11:55 AM 46.4 °F 40.4 °F 30.2 °F 53% 30.27 in 10.0 mi SSW 13.8 mph - N/A   Clear
12:15 PM 46.4 °F 41.1 °F 28.4 °F 50% 30.26 in 10.0 mi SSW 11.5 mph - N/A   Clear
12:35 PM 48.2 °F - 30.2 °F 50% 30.24 in 10.0 mi South 10.4 mph - N/A   Clear
12:55 PM 50.0 °F - 28.4 °F 43% 30.23 in 10.0 mi SSW 12.7 mph - N/A   Clear
1:15 PM 50.0 °F - 28.4 °F 43% 30.21 in 10.0 mi South 10.4 mph 20.7 mph N/A   Clear
1:35 PM 50.0 °F - 30.2 °F 47% 30.20 in 10.0 mi South 10.4 mph - N/A   Clear
1:55 PM 50.0 °F - 28.4 °F 43% 30.19 in 10.0 mi South 8.1 mph - N/A   Clear
2:15 PM 51.8 °F - 28.4 °F 41% 30.18 in 10.0 mi South 9.2 mph - N/A   Clear
2:55 PM 50.0 °F - 28.4 °F 43% 30.17 in 10.0 mi South 9.2 mph - N/A   Clear
3:15 PM 51.8 °F - 28.4 °F 41% 30.17 in 10.0 mi South 11.5 mph - N/A   Clear
3:55 PM 51.8 °F - 28.4 °F 41% 30.16 in 10.0 mi South 11.5 mph 17.3 mph N/A   Clear
4:15 PM 50.0 °F - 28.4 °F 43% 30.16 in 10.0 mi South 11.5 mph - N/A   Clear
4:35 PM 50.0 °F - 30.2 °F 47% 30.16 in 10.0 mi South 9.2 mph - N/A   Clear
4:55 PM 48.2 °F - 30.2 °F 50% 30.16 in 10.0 mi South 9.2 mph - N/A   Clear
5:15 PM 48.2 °F - 30.2 °F 50% 30.16 in 10.0 mi South 6.9 mph - N/A   Clear
5:35 PM 46.4 °F 42.4 °F 32.0 °F 57% 30.16 in 10.0 mi South 8.1 mph - N/A   Clear
5:55 PM 46.4 °F 42.9 °F 32.0 °F 57% 30.15 in 10.0 mi SSE 6.9 mph - N/A   Mostly Cloudy
6:15 PM 44.6 °F 40.2 °F 30.2 °F 57% 30.15 in 10.0 mi SE 8.1 mph - N/A   Mostly Cloudy
6:55 PM 44.6 °F 40.2 °F 30.2 °F 57% 30.16 in 10.0 mi SSE 8.1 mph - N/A   Scattered Clouds
7:15 PM 44.6 °F 40.2 °F 32.0 °F 61% 30.16 in 10.0 mi SSE 8.1 mph - N/A   Mostly Cloudy
7:55 PM 42.8 °F 38.0 °F 32.0 °F 66% 30.16 in 10.0 mi SE 8.1 mph - N/A   Scattered Clouds
8:15 PM 42.8 °F 36.6 °F 30.2 °F 61% 30.15 in 10.0 mi SSE 11.5 mph - N/A   Mostly Cloudy
8:35 PM 42.8 °F 36.2 °F 30.2 °F 61% 30.15 in 10.0 mi SSE 12.7 mph - N/A   Overcast
8:55 PM 42.8 °F 37.0 °F 30.2 °F 61% 30.15 in 10.0 mi SSE 10.4 mph - N/A   Overcast
9:15 PM 42.8 °F 38.0 °F 28.4 °F 57% 30.16 in 10.0 mi SSE 8.1 mph - N/A   Overcast
9:35 PM 42.8 °F 40.1 °F 28.4 °F 57% 30.17 in 10.0 mi SSE 4.6 mph - N/A   Overcast
9:55 PM 42.8 °F 40.1 °F 28.4 °F 57% 30.17 in 10.0 mi SE 4.6 mph - N/A   Overcast
10:15 PM 42.8 °F 38.6 °F 28.4 °F 57% 30.17 in 10.0 mi SSE 6.9 mph - N/A   Overcast
10:35 PM 42.8 °F 38.0 °F 30.2 °F 61% 30.17 in 10.0 mi SSE 8.1 mph - N/A   Overcast
10:55 PM 42.8 °F 39.3 °F 30.2 °F 61% 30.18 in 10.0 mi SSE 5.8 mph - N/A   Overcast
11:15 PM 42.8 °F 40.1 °F 30.2 °F 61% 30.18 in 10.0 mi South 4.6 mph - N/A   Overcast
11:35 PM 42.8 °F 41.1 °F 32.0 °F 66% 30.19 in 10.0 mi South 3.5 mph - N/A   Overcast
11:55 PM 42.8 °F 41.1 °F 32.0 °F 66% 30.19 in 10.0 mi SW 3.5 mph - N/A   Overcast